Location: Unspecified
(48.2080°N, 16.3740°E)
Time: 22:23:41
(UTC+00:00)

Daily predictions for brighter satellites

Satellite Brightness Start Highest point End
(mag) Time Altitude Azimuth Time Altitude Azimuth Time Altitude Azimuth
Cosmos 1553 Rocket 4.3 19:30:04 10° SSW 19:36:22 77° W 19:42:37 10° N
ADEOS 3.9 19:32:27 10° S 19:37:38 71° WSW 19:42:51 10° NNW
S3M 4.2 19:31:49 10° SSE 19:37:44 54° E 19:43:46 10° NNE
ATLAS 5 CENTAUR R/B 2.6 19:40:47 10° SE 19:41:34 11° ESE 19:42:21 10° E
Cosmos 1371 Rocket 4.1 19:36:44 10° NNW 19:41:58 70° ENE 19:47:06 10° SSE
Cosmos 1633 Rocket 3.3 19:37:39 10° N 19:42:00 57° ENE 19:46:19 10° SSE
Cosmos 2344 3.5 19:34:19 10° SSW 19:42:14 75° SE 19:49:24 10° NE
Cosmos 1709 Rocket 4.2 19:36:37 10° N 19:42:57 62° ENE 19:49:15 10° SSE
Cosmos 1943 Rocket 2.2 19:42:09 10° SSW 19:47:48 83° ESE 19:53:27 10° NNE
YAOGAN 11 4.2 19:45:02 10° NNE 19:49:21 57° ESE 19:53:35 10° S
Cosmos 1400 Rocket 3.8 19:50:26 10° N 19:53:36 28° ENE 19:56:42 10° SE
Cosmos 1174 4.1 19:51:05 10° S 19:54:49 38° ESE 19:58:01 10° NE
Cosmos 2082 Rocket 2.4 19:49:34 10° NNW 19:55:11 65° ENE 20:00:45 10° SE
Cosmos 2278 Rocket 2.2 19:53:50 10° SSW 19:59:29 79° ESE 20:05:10 10° NNE
Meteor 1-15 Rocket 4.4 19:56:27 10° NNW 20:02:10 77° W 20:07:46 10° S
Lacrosse 4 Rocket 3.8 20:02:32 10° N 20:05:10 16° NE 20:07:49 10° ENE
USA-17 4.2 20:02:59 10° NW 20:06:08 79° SW 20:09:01 13° SE
IRS-1C Rocket 4.3 20:03:03 10° SSE 20:08:11 62° ENE 20:13:23 10° N
Iridium 4 Rocket 3.4 20:03:40 10° S 20:08:33 76° W 20:13:03 10° N
NOSS 2-1 (E) 3.1 20:06:27 10° SW 20:10:22 77° NW 20:13:33 10° NE
Cosmos 1745 Rocket 4.4 20:04:34 10° NNW 20:10:51 69° W 20:17:09 10° S
USA 186 1.6 20:09:36 10° S 20:11:25 39° W 20:13:15 10° NNW
ATLAS 5 CENTAUR R/B 3.9 20:07:07 10° SW 20:12:02 89° SE 20:31:49 10° NE
Cosmos 1656 Rocket 4.3 20:08:04 10° S 20:12:59 34° ESE 20:17:58 10° NE
Timation 2 Rocket 4.1 20:08:50 10° SSW 20:15:06 66° ESE 20:21:42 10° NNE
Meteor 1-16 Rocket 4.3 20:09:47 10° NNW 20:15:31 87° W 20:21:23 10° S
Cosmos 1048 Rocket 4.3 20:10:48 10° S 20:15:50 50° ESE 20:20:57 10° NNE
Cosmos 1953 3.7 20:12:41 10° NNW 20:15:51 30° W 20:19:00 10° SSW
USA 215 4.5 20:10:03 10° ENE 20:16:05 42° N 20:22:08 10° WNW
USA 59 Rocket 0.9 20:13:12 10° WSW 20:16:31 39° NW 20:19:21 10° NNE
Okean-O 3.6 20:12:24 10° S 20:16:34 44° W 20:20:47 10° NNW
ARIANE 6 FM1 Upper Stage 3.2 20:12:58 10° S 20:16:50 36° SE 20:20:39 10° ENE
USA 245 2.1 20:16:39 14° SSE 20:18:44 81° WSW 20:21:03 10° NNW
Cosmos 1680 Rocket 4.0 20:16:17 10° SSW 20:21:25 65° WNW 20:26:38 10° NNE
SL-8 R/B 3.6 20:16:43 10° WSW 20:21:27 80° SSE 20:26:11 10° E
SPOT 3 Rocket 3.6 20:16:36 10° SSE 20:21:45 79° WSW 20:26:57 10° NNW
NOSS 3-1 (C) 3.9 20:18:33 11° SSE 20:22:06 26° ESE 20:26:23 10° ENE
Cosmos 1441 Rocket 3.6 20:20:39 16° SSE 20:22:46 33° E 20:25:43 10° NNE
SWAS 4.3 20:20:05 10° SSW 20:24:08 90° WNW 20:28:12 10° NNE
USA 308 3.1 20:24:15 10° WNW 20:25:38 28° N 20:28:10 10° NE
Cosmos 1328 Rocket 4.4 20:23:09 10° SSW 20:27:20 49° WNW 20:31:32 10° N
Cosmos 1470 Rocket 3.7 20:23:54 10° NNW 20:28:21 73° W 20:32:29 11° S
Cosmos 2056 Rocket 4.3 20:26:07 10° NW 20:30:57 44° WSW 20:35:47 10° S
Okean 2 3.3 20:27:56 10° SSW 20:31:46 82° W 20:35:39 10° N
Cosmos 2369 Rocket 3.4 20:30:58 15° SE 20:33:59 23° ESE 20:38:17 10° NE
Cosmos 1933 Rocket 3.7 20:31:23 10° N 20:35:41 60° ENE 20:38:51 18° SSE
CZ-4B R/B 3.1 20:32:19 13° S 20:35:48 67° WSW 20:39:49 10° NNW
Okean O Rocket 3.4 20:35:11 10° SSW 20:38:55 27° W 20:42:42 10° NW
Okean 3 3.4 20:36:54 15° S 20:40:05 61° E 20:44:05 10° NNE
CZ-4B R/B 3.6 20:36:01 14° SSE 20:40:33 79° WSW 20:45:51 10° NNW
Ariane Rocket 3.2 20:36:56 13° S 20:41:29 70° WSW 20:46:34 10° NNW
USA 276 2.2 20:42:42 10° WNW 20:44:53 50° N 20:47:21 10° ENE
USA 81 4.1 20:42:54 10° N 20:48:10 66° E 20:52:02 18° SSE
Cosmos 2074 Rocket 4.1 20:45:28 10° N 20:51:40 66° ENE 20:56:18 18° SSE
COSMOS 2406 3.2 20:46:35 10° NNW 20:52:19 83° ENE 20:56:28 19° SSE
NOSS 7 (E) 4.3 20:49:26 10° NW 20:52:36 73° NE 20:54:27 23° SE
Okean 1-7 4.4 20:53:11 17° ESE 20:54:58 22° E 20:58:17 10° NE
Helios 1A 4.0 20:52:36 10° NE 20:56:00 26° E 20:57:31 21° SE
Lacrosse 5 rocket 3.7 20:53:52 10° NW 20:56:33 19° N 20:59:10 10° NE
Cosmos 614 Rocket 3.9 20:54:47 12° S 20:59:23 67° ESE 21:04:25 10° NNE
Cosmos 1869 Rocket 3.5 21:03:45 10° N 21:08:06 86° WSW 21:10:47 23° S
SL-4 R/B 1.7 21:07:03 10° WSW 21:10:23 68° NNW 21:13:35 10° ENE
Nadezhda 1 Rocket 4.3 21:07:13 20° SSE 21:11:24 53° E 21:17:29 10° NNE
CZ-2C R/B 2.5 21:11:37 29° SSW 21:12:39 48° W 21:15:19 10° NNW
Cosmos 1328 3.6 21:11:35 29° SSE 21:13:06 55° E 21:16:34 10° NNE
SL-12 R/B(2) 4.3 21:05:25 10° SSW 21:13:09 66° ESE 21:22:39 10° NE
COSMOS 2455 3.7 21:10:55 21° SSE 21:13:45 31° ESE 21:18:58 10° NE
Cosmos 1733 Rocket 3.6 21:10:52 10° N 21:15:01 45° ENE 21:17:14 24° SE
Cosmos 967 Rocket 4.5 21:10:42 10° SSW 21:17:10 84° ESE 21:23:40 10° NE
Cosmos 972 Rocket 4.0 21:12:42 10° NNW 21:18:05 75° ENE 21:21:05 24° SSE
Helios 1B rocket 3.4 21:18:53 20° ESE 21:20:22 28° ENE 21:23:23 10° N
ATLAS 5 CENTAUR R/B 1.5 21:20:06 10° WSW 21:22:55 49° NW 21:25:57 10° NNE
Cosmos 1707 Rocket 4.3 21:21:17 25° SE 21:23:09 39° E 21:27:17 10° NNE
BREEZE-M R/B 4.1 21:19:22 10° W 21:23:58 78° N 21:33:30 10° E
Cosmos 1452 Rocket 4.0 21:23:12 10° NNW 21:28:20 53° WSW 21:31:30 22° S
Cosmos 1812 3.8 21:28:46 10° WNW 21:29:12 11° W 21:29:12 11° W
Cosmos 1818 3.7 21:29:40 20° SSW 21:33:21 55° ESE 21:38:41 10° NE
ARIANE 5 R/B 3.5 21:32:32 22° ESE 21:34:52 39° ENE 21:38:57 10° N
Cosmos 1862 Rocket 3.7 21:33:38 30° SSE 21:35:30 56° E 21:39:44 10° NNE
Cosmos 2082 Rocket 3.9 21:34:31 10° NW 21:38:44 22° W 21:42:33 11° SSW
Cosmos 2263 4.3 21:37:53 24° S 21:41:12 56° ESE 21:46:47 10° NE
CZ-2C R/B 4.4 21:37:37 10° ESE 21:41:33 23° ENE 21:45:41 10° N
SL-8 Rocket 4.4 21:37:11 10° N 21:43:11 52° ENE 21:46:53 23° SE
Lacrosse 4 Rocket 1.3 21:39:21 10° NNW 21:43:35 86° ENE 21:45:25 33° SE
ACS3 Solar Sail 3.6 21:40:28 10° NE 21:43:39 15° E 21:46:18 11° ESE
Cosmos 2184 Rocket 4.5 21:38:10 10° NNW 21:44:20 56° W 21:48:47 19° SSW
Cosmos 2154 Rocket 4.4 21:40:50 10° NNW 21:46:56 58° W 21:51:09 20° SSW
USA 308 4.3 21:45:42 10° NW 21:47:57 25° N 21:51:08 10° ENE
BREEZE-M DEB (TANK) 3.2 21:41:42 10° WNW 21:48:42 70° NNE 21:50:34 19° E
Exosat Rocket 4.4 21:44:54 14° SSW 21:50:19 87° WNW 21:59:12 10° NNE
ALOS 2 3.1 21:50:57 27° SE 21:53:00 51° ENE 21:57:16 10° N
Meteor 1-24 Rocket 4.0 21:50:20 26° S 21:53:45 65° E 21:59:41 10° NNE
Cosmos 2228 Rocket 3.3 21:52:13 33° SSE 21:53:56 55° E 21:58:17 10° NNE
ARIANE 6 FM1 Upper Stage 4.2 21:51:55 10° WSW 21:55:48 37° NW 21:59:40 10° NNE
Cosmos 1315 Rocket 2.6 21:52:06 10° N 21:55:55 79° ENE 21:57:10 41° SSE
USA 215 3.7 21:52:07 10° ESE 21:58:32 62° NNE 22:04:58 10° NW
Cosmos 1908 Rocket 4.3 21:57:03 10° N 22:01:17 42° ENE 22:03:10 27° SE
SL-8 R/B 3.6 21:59:02 10° W 22:03:47 89° N 22:08:33 10° E
USA 290 2.8 22:01:58 10° NW 22:04:58 42° WSW 22:05:22 40° SW
CZ-3B R/B 4.1 22:04:25 25° S 22:08:08 52° ESE 22:29:42 10° NE
NOSS 3-1 (A) 2.8 22:08:37 28° SSW 22:11:05 68° SE 22:16:39 10° NE
NOSS 3-1 (C) 3.7 22:07:35 10° WSW 22:12:14 54° NW 22:17:55 10° NE
Cosmos 220 Rocket 4.0 22:09:31 10° NNW 22:13:38 63° WSW 22:14:58 39° S
Cosmos 2297 Rocket 4.2 22:11:21 10° N 22:15:52 24° NE 22:20:21 10° E
Cosmos 2341 Rocket 4.0 22:10:03 10° N 22:16:18 84° E 22:19:42 29° SSE
Cosmos 921 Rocket 4.3 22:15:43 22° ESE 22:16:27 24° E 22:19:47 10° NE
Cosmos 2369 Rocket 2.5 22:12:40 14° SW 22:17:30 63° WNW 22:23:06 10° NNE
USA 276 2.6 22:15:11 10° WNW 22:16:50 38° WNW 22:16:50 38° WNW
Cosmos 1833 4.2 22:12:34 10° NNW 22:18:14 75° WSW 22:21:05 31° SSE
IRIDIUM 104 4.4 22:18:12 10° N 22:23:26 74° W 22:25:57 31° S
CZ-2C R/B 3.9 22:19:34 10° N 22:24:16 72° WNW 22:26:40 29° SSW
PSLV R/B 3.7 22:20:54 10° NNE 22:25:34 75° ESE 22:27:25 36° S
Helios 1A 4.4 22:27:08 10° N 22:30:39 30° WNW 22:33:12 16° WSW
SAR-Lupe-2 3.9 22:30:10 40° ESE 22:30:48 47° ENE 22:33:54 10° N
Cosmos 2297 4.2 22:26:44 14° SW 22:31:36 58° WNW 22:37:16 10° NNE
Okean 1-7 4.1 22:29:24 21° SW 22:31:43 37° WNW 22:35:40 10° N
Lacrosse 5 rocket 2.4 22:30:33 10° NW 22:33:49 35° NNE 22:37:00 10° E
Cosmos 1140 Rocket 3.5 22:34:32 35° S 22:36:33 61° ESE 22:41:36 10° NNE
Meteor 2-5 Rocket 4.0 22:34:27 26° SSW 22:37:55 69° WNW 22:43:52 10° N
Cosmos 1300 Rocket 3.6 22:34:33 10° N 22:38:51 66° E 22:40:23 37° SSE
Cosmos 371 Rocket 4.2 22:37:31 28° SE 22:38:55 34° ESE 22:43:16 10° NE
Spot 4 4.4 22:41:26 31° SSW 22:43:20 47° W 22:48:00 10° NNW
Cosmos 2366 rocket 4.2 22:37:49 10° NNW 22:44:05 66° W 22:47:23 29° SSW
Cosmos 1356 Rocket 3.9 22:41:24 10° NNW 22:45:18 46° W 22:46:27 36° SW
CENTAUR R/B 3.9 22:38:10 10° NW 22:45:58 55° NE 22:55:04 10° ESE
CZ-2C R/B 3.0 22:40:57 10° NNE 22:46:12 75° ESE 22:48:21 35° S
SL-4 R/B 2.6 22:44:45 10° WNW 22:47:54 43° N 22:50:56 10° ENE
Cosmos 1763 Rocket 3.8 22:42:55 10° NNW 22:47:54 57° ENE 22:50:49 24° SE
Nadezhda 3 Rocket 4.4 22:47:40 27° SSE 22:50:54 52° E 22:57:00 10° NNE
Helios 1B rocket 3.7 22:52:44 20° WSW 22:53:17 21° W 22:55:58 10° NW
Cosmos 1821 Rocket 3.9 22:48:52 10° NNW 22:54:58 79° W 22:58:06 31° S
COSMOS 2455 3.4 22:53:58 12° SW 22:59:23 56° NW 23:05:20 10° NNE
Cosmos 2181 Rocket 4.1 22:59:37 28° SSW 23:03:11 76° W 23:09:40 10° N
NOSS 2-2 (C) 3.4 23:00:38 10° NW 23:04:19 73° SW 23:06:10 35° SSE
Cosmos 1703 Rocket 4.0 23:03:32 32° SW 23:05:18 55° WNW 23:09:40 10° N
ATLAS 5 CENTAUR R/B 4.3 23:05:10 10° NNW 23:05:41 10° NNW 23:06:14 10° N
NOSS 2-2 (D) 3.7 23:04:40 10° NW 23:08:13 62° NE 23:11:43 17° SE
USA 308 3.8 23:07:03 10° NW 23:10:14 40° NNE 23:14:13 10° E
ARIANE 5 R/B 4.1 23:09:54 21° WSW 23:11:16 24° W 23:14:53 10° NW
BREEZE-M DEB (TANK) 3.0 23:01:42 10° WNW 23:11:22 56° SW 23:13:01 33° SSE
Cosmos 1869 4.5 23:10:13 10° NW 23:13:05 24° W 23:13:37 23° WSW
Landsat 5 3.8 23:10:35 10° NNE 23:14:11 44° E 23:15:05 37° SE
MetOp-A 3.6 23:16:35 42° SW 23:17:22 51° W 23:21:05 10° NNW
Lacrosse 4 Rocket 3.7 23:19:15 10° W 23:20:39 11° WSW 23:20:48 11° WSW
Cosmos 1697 Rocket 4.2 23:18:46 17° SE 23:21:14 23° ESE 23:25:30 10° NE
CZ-2C R/B 2.7 23:19:03 33° S 23:21:20 61° WSW 23:26:39 10° NNW
Cosmos 1346 Rocket 2.6 23:21:17 48° SSE 23:22:06 65° E 23:25:44 10° NNE
Cosmos 2084 Rocket 3.6 23:21:28 41° SSE 23:22:10 46° SE 23:26:04 10° NE
ACS3 Solar Sail 1.6 23:20:53 10° NNE 23:26:35 89° ESE 23:29:37 30° SSW
Cosmos 540 Rocket 3.4 23:22:30 10° NNW 23:27:36 77° WSW 23:29:57 32° S
ALOS 2 4.4 23:28:20 17° WSW 23:29:38 19° W 23:32:46 10° NW
Cosmos 2227 Rocket 3.8 23:26:00 10° NNW 23:31:04 33° NE 23:36:06 10° ESE
Cosmos 1025 Rocket 4.5 23:31:25 19° SE 23:33:27 28° E 23:37:12 10° NNE
Gbstr 26 Del rocket 4.2 23:31:24 27° SSW 23:34:55 58° SE 23:42:07 10° ENE
USA 229 DEB 4.1 23:32:52 26° SSE 23:35:29 39° ESE 23:41:32 10° NE
USA 229 4.2 23:32:55 26° SSE 23:35:32 39° ESE 23:41:33 10° NE
Cosmos 468 Rocket 4.1 23:32:05 10° NNW 23:37:13 74° ENE 23:40:29 22° SSE
SJ 16-02 1.2 23:37:23 39° SSW 23:38:55 89° ESE 23:43:12 10° NNE
USA 215 3.3 23:36:32 17° SSE 23:41:37 56° SW 23:48:02 10° WNW
Okean 2 Rocket 4.4 23:40:08 10° N 23:44:07 34° ENE 23:47:17 15° SE
SL-8 R/B 3.8 23:41:22 10° W 23:45:56 48° SSW 23:49:38 15° SE
Cosmos 2251 Rocket 3.9 23:46:18 29° S 23:48:53 55° ESE 23:54:07 10° NNE
ADEOS Rocket 4.2 23:43:49 10° NNE 23:48:54 30° E 23:52:40 15° SE
Cosmos 304 Rocket 4.4 23:49:59 24° SW 23:52:36 48° WNW 23:57:14 10° NNE
Okean 1 Rocket 4.2 23:48:47 10° N 23:52:50 37° ENE 23:55:54 15° SE
Cosmos 2242 Rocket 3.5 23:51:57 35° S 23:53:47 89° E 23:58:15 10° N
Cosmos 921 Rocket 4.0 23:52:16 22° WSW 23:54:20 35° WNW 23:58:11 10° N
